Location: Home
(42.5358°N, 72.7383°W)
Time: 05:21:40
(UTC-04:00)

COSMOS 2251 DEB - Pass Details

Date: 30 June 2022
Orbit: 769 x 1233 km, 74.1° (Epoch: 15 August)

Event Time Altitude Azimuth Distance (km) Brightness Sun altitude
Exits shadow 01:13:17 18° 116° (ESE) 2,089 ? -24.2°
Maximum altitude 01:15:06 21° 92° (E) 2,000 ? -24.1°
Drops below altitude 10° 01:19:39 10° 47° (NE) 2,790 ? -24.0°
Sets 01:23:01 0° 33° (NNE) 3,836 ? -24.0°
